Location: Emerald Isle
(34.6779°N, 76.9508°W)
Time: 18:24:58
(UTC-04:00)

Envisat - Visible Passes

Search period start: 20 July 2018 00:00
Search period end: 30 July 2018 00:00
Orbit: 764 x 766 km, 98.2° (Epoch: 20 July)

Date Brightness Start Highest point End Pass type
(mag) Time Alt. Az. Time Alt. Az. Time Alt. Az.
20 Jul 4.7 21:06:39 10° SSW 21:11:09 32° W 21:15:42 10° NW visible
22 Jul 5.6 21:33:34 10° SW 21:36:54 18° W 21:40:14 10° NW visible
23 Jul 4.3 20:55:11 10° S 20:59:57 41° W 21:04:45 10° NNW visible
25 Jul 5.3 21:21:43 10° SSW 21:25:39 23° W 21:29:37 10° NW visible
26 Jul 3.8 20:43:49 10° S 20:48:45 54° W 20:53:44 10° NNW visible
27 Jul 5.8 21:49:36 10° WSW 21:51:26 12° W 21:53:17 10° WNW visible
28 Jul 4.9 21:10:03 10° SSW 21:14:25 29° W 21:18:48 10° NW visible
